| time (UTC) | temp F | wind direction | speed MPH | gust MPH | rain 1hr in | rain 24hr in | rain mn in | humidity % | barometer mb |
| 20260502161901 | 71 | 21 | 1.0 | 2.0 | 0.00 | 0.06 | 0.06 | 61 | 1024.1 |
| 20260502161357 | 71 | 328 | 2.0 | 3.0 | 0.00 | 0.06 | 0.06 | 59 | 1023.8 |
| 20260502160855 | 72 | 298 | 1.0 | 2.0 | 0.00 | 0.06 | 0.06 | 61 | 1023.8 |
| 20260502160353 | 72 | 11 | 1.0 | 2.0 | 0.00 | 0.06 | 0.06 | 61 | 1023.6 |
| 20260502152328 | 67 | 226 | 1.0 | 2.0 | 0.00 | 0.05 | 0.05 | 76 | 1023.2 |
| 20260502151826 | 66 | 36 | 1.0 | 3.0 | 0.00 | 0.05 | 0.05 | 75 | 1023.3 |
| 20260502151322 | 67 | 69 | 2.0 | 5.0 | 0.00 | 0.05 | 0.05 | 74 | 1023.0 |
| 20260502150820 | 66 | 262 | 1.0 | 5.0 | 0.00 | 0.05 | 0.05 | 76 | 1023.1 |
| 20260502150316 | 65 | 1 | 1.0 | 3.0 | 0.00 | 0.05 | 0.05 | 77 | 1023.2 |
| 20260502130705 | 54 | 280 | 1.0 | 2.0 | 0.00 | 0.04 | 0.04 | 99 | 1020.6 |
| 20260502130203 | 53 | 333 | 1.0 | 2.0 | 0.00 | 0.04 | 0.04 | 99 | 1020.6 |
| 20260502123648 | 53 | 276 | 0.0 | 1.0 | 0.00 | 0.04 | 0.04 | 99 | 1020.2 |
| 20260502123145 | 52 | 348 | 1.0 | 2.0 | 0.00 | 0.04 | 0.04 | 99 | 1020.3 |
| 20260502122641 | 52 | 283 | 0.0 | 0.0 | 0.00 | 0.04 | 0.04 | 99 | 1020.2 |
| 20260502122138 | 52 | 293 | 0.0 | 0.0 | 0.00 | 0.04 | 0.04 | 99 | 1020.0 |
| 20260502121636 | 52 | 313 | 0.0 | 0.0 | 0.00 | 0.04 | 0.04 | 99 | 1020.0 |
| 20260502121133 | 52 | 335 | 1.0 | 1.0 | 0.00 | 0.04 | 0.04 | 99 | 1019.9 |
| 20260502120630 | 52 | 306 | 0.0 | 0.0 | 0.00 | 0.04 | 0.04 | 99 | 1020.1 |
| 20260502120127 | 52 | 306 | 0.0 | 0.0 | 0.00 | 0.04 | 0.04 | 99 | 1019.9 |
| 20260502115624 | 52 | 304 | 0.0 | 0.0 | 0.00 | 0.04 | 0.04 | 99 | 1019.9 |
| 20260502115120 | 52 | 327 | 1.0 | 2.0 | 0.07 | 0.04 | 0.04 | 99 | 1019.9 |
| 20260502114616 | 52 | 339 | 0.0 | 1.0 | 0.07 | 0.04 | 0.04 | 99 | 1019.7 |
| 20260502114114 | 51 | 353 | 2.0 | 2.0 | 0.00 | 0.03 | 0.03 | 99 | 1019.8 |
| 20260502113611 | 51 | 284 | 1.0 | 3.0 | 0.00 | 0.03 | 0.03 | 99 | 1019.6 |
| 20260502113110 | 51 | 307 | 0.0 | 0.0 | 0.00 | 0.03 | 0.03 | 99 | 1019.7 |
| 20260502112607 | 51 | 319 | 0.0 | 1.0 | 0.00 | 0.03 | 0.03 | 99 | 1019.7 |
| 20260502112104 | 51 | 298 | 0.0 | 0.0 | 0.00 | 0.03 | 0.03 | 99 | 1019.6 |
| 20260502111601 | 51 | 313 | 0.0 | 0.0 | 0.00 | 0.03 | 0.03 | 99 | 1019.5 |
| 20260502111059 | 51 | 305 | 0.0 | 0.0 | 0.00 | 0.03 | 0.03 | 99 | 1019.6 |
| 20260502110556 | 52 | 274 | 0.0 | 1.0 | 0.00 | 0.03 | 0.03 | 99 | 1019.5 |
| 20260502110054 | 52 | 282 | 0.0 | 1.0 | 0.00 | 0.03 | 0.03 | 99 | 1019.5 |
| 20260502105551 | 52 | 287 | 0.0 | 1.0 | 0.00 | 0.03 | 0.03 | 99 | 1019.5 |
| 20260502105048 | 52 | 320 | 0.0 | 2.0 | 0.00 | 0.03 | 0.03 | 99 | 1019.4 |
| 20260502104545 | 52 | 328 | 1.0 | 1.0 | 0.00 | 0.03 | 0.03 | 99 | 1019.3 |
| 20260502104043 | 52 | 252 | 0.0 | 1.0 | 0.00 | 0.03 | 0.03 | 99 | 1019.1 |
| 20260502103541 | 52 | 300 | 0.0 | 0.0 | 0.00 | 0.03 | 0.03 | 99 | 1019.1 |
| 20260502103038 | 52 | 316 | 0.0 | 1.0 | 0.00 | 0.03 | 0.03 | 99 | 1019.2 |
| 20260502102534 | 52 | 331 | 0.0 | 0.0 | 0.00 | 0.03 | 0.03 | 99 | 1019.3 |
| 20260502102032 | 52 | 311 | 0.0 | 0.0 | 0.00 | 0.03 | 0.03 | 99 | 1019.2 |
| 20260502101529 | 52 | 280 | 0.0 | 1.0 | 0.00 | 0.03 | 0.03 | 99 | 1019.0 |
| 20260502101027 | 52 | 301 | 0.0 | 0.0 | 0.00 | 0.03 | 0.03 | 99 | 1019.0 |
| 20260502100526 | 52 | 308 | 0.0 | 0.0 | 0.00 | 0.03 | 0.03 | 99 | 1018.9 |
| 20260502091500 | 52 | 318 | 0.0 | 0.0 | 0.00 | 0.02 | 0.02 | 99 | 1018.0 |
| 20260502090958 | 52 | 318 | 0.0 | 0.0 | 0.00 | 0.02 | 0.02 | 99 | 1017.9 |
| 20260502090454 | 52 | 318 | 0.0 | 0.0 | 0.00 | 0.02 | 0.02 | 99 | 1017.7 |
| 20260502071349 | 54 | 343 | 0.0 | 0.0 | 0.00 | 0.01 | 0.01 | 99 | 1018.0 |
| 20260502070847 | 54 | 317 | 0.0 | 1.0 | 0.00 | 0.01 | 0.01 | 99 | 1018.2 |
| 20260502070344 | 54 | 328 | 0.0 | 1.0 | 0.00 | 0.01 | 0.01 | 99 | 1018.3 |
| 20260502065844 | 54 | 307 | 0.0 | 0.0 | 0.00 | 0.01 | 0.01 | 99 | 1018.1 |
| 20260502065341 | 54 | 327 | 0.0 | 1.0 | 0.00 | 0.01 | 0.01 | 99 | 1017.8 |
| 20260502064839 | 54 | 325 | 0.0 | 2.0 | 0.00 | 0.01 | 0.01 | 99 | 1017.7 |
| 20260502064337 | 54 | 345 | 2.0 | 3.0 | 0.00 | 0.01 | 0.01 | 99 | 1017.8 |
| 20260502063833 | 54 | 332 | 1.0 | 1.0 | 0.00 | 0.01 | 0.01 | 99 | 1018.0 |
| 20260502063331 | 54 | 324 | 0.0 | 2.0 | 0.00 | 0.01 | 0.01 | 99 | 1017.8 |
| 20260502062828 | 54 | 349 | 2.0 | 2.0 | 0.00 | 0.01 | 0.01 | 99 | 1017.9 |
| 20260502062326 | 54 | 329 | 0.0 | 1.0 | 0.00 | 0.01 | 0.01 | 99 | 1017.8 |
| 20260502061825 | 54 | 58 | 0.0 | 2.0 | 0.00 | 0.01 | 0.01 | 99 | 1017.9 |
| 20260502061322 | 54 | 305 | 0.0 | 1.0 | 0.00 | 0.01 | 0.01 | 99 | 1017.8 |
| 20260502060817 | 54 | 12 | 0.0 | 1.0 | 0.05 | 0.01 | 0.01 | 99 | 1017.8 |
| 20260502060313 | 54 | 49 | 0.0 | 1.0 | 0.05 | 0.01 | 0.01 | 99 | 1017.8 |
| 20260502055811 | 54 | 354 | 1.0 | 3.0 | 0.00 | 0.00 | 0.00 | 99 | 1017.9 |
| 20260502055308 | 54 | 337 | 0.0 | 3.0 | 0.00 | 0.00 | 0.00 | 99 | 1017.7 |
| 20260502054808 | 54 | 313 | 1.0 | 2.0 | 0.00 | 0.00 | 0.00 | 99 | 1017.9 |
| 20260502054305 | 54 | 42 | 1.0 | 2.0 | 0.00 | 0.00 | 0.00 | 99 | 1017.8 |
| 20260502053802 | 54 | 323 | 1.0 | 2.0 | 0.00 | 0.00 | 0.00 | 99 | 1017.8 |
| 20260502053259 | 54 | 304 | 0.0 | 1.0 | 0.00 | 0.00 | 0.00 | 99 | 1018.0 |
| 20260502052757 | 54 | 309 | 1.0 | 1.0 | 0.00 | 0.00 | 0.00 | 99 | 1017.8 |
| 20260502052255 | 55 | 319 | 1.0 | 5.0 | 0.00 | 0.00 | 0.00 | 99 | 1017.9 |
| 20260502051752 | 55 | 321 | 0.0 | 2.0 | 0.00 | 0.00 | 0.00 | 99 | 1018.0 |
| 20260502051251 | 55 | 315 | 2.0 | 6.0 | 0.00 | 0.00 | 0.00 | 99 | 1017.8 |
| 20260502050747 | 55 | 335 | 0.0 | 1.0 | 0.00 | 0.00 | 0.00 | 99 | 1018.0 |
| 20260502050243 | 55 | 342 | 1.0 | 2.0 | 0.00 | 0.00 | 0.00 | 99 | 1017.9 |
| 20260502045740 | 55 | 29 | 3.0 | 6.0 | 0.00 | 0.29 | 0.29 | 99 | 1017.9 |
| 20260502045237 | 55 | 356 | 2.0 | 3.0 | 0.00 | 0.29 | 0.29 | 99 | 1017.8 |
| 20260502044734 | 55 | 292 | 0.0 | 1.0 | 0.00 | 0.29 | 0.29 | 99 | 1017.7 |
| 20260502044230 | 55 | 253 | 1.0 | 2.0 | 0.00 | 0.29 | 0.29 | 99 | 1017.7 |
| 20260502043728 | 55 | 11 | 1.0 | 3.0 | 0.07 | 0.29 | 0.29 | 99 | 1017.6 |
| 20260502043225 | 55 | 307 | 0.0 | 2.0 | 0.00 | 0.28 | 0.28 | 99 | 1017.5 |
| 20260502042724 | 55 | 348 | 1.0 | 3.0 | 0.00 | 0.28 | 0.28 | 99 | 1017.8 |
| 20260502042222 | 55 | 357 | 1.0 | 8.0 | 0.00 | 0.28 | 0.28 | 99 | 1017.8 |
| 20260502041719 | 55 | 338 | 0.0 | 1.0 | 0.00 | 0.28 | 0.28 | 99 | 1017.9 |
| 20260502041217 | 55 | 307 | 0.0 | 2.0 | 0.00 | 0.28 | 0.28 | 99 | 1018.1 |
| 20260502040713 | 55 | 349 | 1.0 | 2.0 | 0.00 | 0.28 | 0.28 | 99 | 1018.2 |
| 20260502040210 | 55 | 312 | 0.0 | 1.0 | 0.00 | 0.28 | 0.28 | 99 | 1018.1 |
| 20260502035706 | 55 | 326 | 0.0 | 1.0 | 0.00 | 0.28 | 0.28 | 99 | 1018.2 |
| 20260502035203 | 55 | 269 | 1.0 | 1.0 | 0.00 | 0.28 | 0.28 | 99 | 1018.0 |
| 20260502034701 | 55 | 318 | 0.0 | 2.0 | 0.00 | 0.28 | 0.28 | 99 | 1018.0 |
| 20260502034159 | 55 | 328 | 1.0 | 5.0 | 0.00 | 0.28 | 0.28 | 99 | 1017.9 |
| 20260502033657 | 55 | 306 | 1.0 | 2.0 | 0.00 | 0.28 | 0.28 | 99 | 1017.8 |
| 20260502033154 | 55 | 299 | 0.0 | 1.0 | 0.00 | 0.28 | 0.28 | 99 | 1017.7 |
| 20260502032650 | 55 | 341 | 1.0 | 3.0 | 0.05 | 0.28 | 0.28 | 99 | 1017.7 |
| 20260502032147 | 55 | 287 | 0.0 | 1.0 | 0.05 | 0.28 | 0.28 | 99 | 1017.7 |
| 20260502031645 | 56 | 317 | 0.0 | 1.0 | 0.00 | 0.28 | 0.28 | 99 | 1017.5 |
| 20260502031142 | 56 | 323 | 0.0 | 5.0 | 0.00 | 0.28 | 0.28 | 99 | 1017.4 |
| 20260502030641 | 55 | 328 | 0.0 | 3.0 | 0.00 | 0.28 | 0.28 | 99 | 1017.3 |
| 20260502030139 | 56 | 317 | 1.0 | 2.0 | 0.00 | 0.28 | 0.28 | 99 | 1017.3 |
| 20260502025635 | 56 | 359 | 2.0 | 3.0 | 0.00 | 0.28 | 0.28 | 99 | 1016.8 |
| 20260502025133 | 56 | 343 | 0.0 | 5.0 | 0.00 | 0.28 | 0.28 | 99 | 1016.9 |
| 20260502024631 | 56 | 9 | 0.0 | 2.0 | 0.00 | 0.28 | 0.28 | 99 | 1016.7 |
| 20260502024129 | 56 | 357 | 1.0 | 2.0 | 0.00 | 0.28 | 0.28 | 99 | 1016.8 |
| 20260502023627 | 56 | 338 | 0.0 | 5.0 | 0.00 | 0.28 | 0.28 | 99 | 1017.0 |
| 20260502023124 | 56 | 265 | 0.0 | 2.0 | 0.00 | 0.28 | 0.28 | 99 | 1017.1 |
| 20260502022620 | 56 | 326 | 1.0 | 2.0 | 0.00 | 0.28 | 0.28 | 99 | 1016.8 |
| 20260502022118 | 56 | 325 | 0.0 | 1.0 | 0.07 | 0.28 | 0.28 | 99 | 1016.9 |
| 20260502021615 | 56 | 52 | 2.0 | 3.0 | 0.07 | 0.28 | 0.28 | 99 | 1016.7 |
| 20260502021112 | 56 | 339 | 2.0 | 2.0 | 0.00 | 0.26 | 0.26 | 99 | 1016.8 |
| 20260502020610 | 56 | 2 | 1.0 | 2.0 | 0.00 | 0.26 | 0.26 | 99 | 1017.0 |
| 20260502020106 | 56 | 341 | 2.0 | 2.0 | 0.00 | 0.26 | 0.26 | 99 | 1016.9 |
| 20260502015604 | 56 | 357 | 1.0 | 2.0 | 0.00 | 0.26 | 0.26 | 99 | 1016.8 |
| 20260502015100 | 56 | 320 | 1.0 | 2.0 | 0.00 | 0.26 | 0.26 | 99 | 1016.9 |
| 20260502014557 | 56 | 321 | 2.0 | 2.0 | 0.00 | 0.26 | 0.26 | 99 | 1016.8 |
| 20260502014054 | 56 | 293 | 1.0 | 3.0 | 0.00 | 0.26 | 0.26 | 99 | 1016.4 |
| 20260502013549 | 57 | 248 | 1.0 | 2.0 | 0.00 | 0.26 | 0.26 | 99 | 1016.4 |
| 20260502013046 | 57 | 3 | 0.0 | 3.0 | 0.00 | 0.26 | 0.26 | 99 | 1016.0 |
| 20260502012543 | 57 | 352 | 2.0 | 3.0 | 0.00 | 0.26 | 0.26 | 99 | 1016.1 |
| 20260502012041 | 57 | 316 | 1.0 | 2.0 | 0.00 | 0.26 | 0.26 | 99 | 1016.1 |
| 20260502011538 | 57 | 347 | 1.0 | 6.0 | 0.05 | 0.26 | 0.26 | 99 | 1016.6 |
| 20260502011034 | 57 | 241 | 1.0 | 2.0 | 0.00 | 0.26 | 0.26 | 99 | 1016.7 |
| 20260502010532 | 58 | 325 | 0.0 | 2.0 | 0.00 | 0.26 | 0.26 | 99 | 1016.5 |
| 20260502010028 | 58 | 343 | 3.0 | 7.0 | 0.00 | 0.26 | 0.26 | 99 | 1015.9 |
| 20260502005526 | 58 | 349 | 1.0 | 1.0 | 0.00 | 0.26 | 0.26 | 99 | 1015.4 |
| 20260502005023 | 58 | 301 | 0.0 | 1.0 | 0.00 | 0.26 | 0.26 | 99 | 1014.7 |
| 20260502004519 | 58 | 328 | 0.0 | 2.0 | 0.00 | 0.26 | 0.26 | 99 | 1014.6 |
| 20260502004016 | 58 | 341 | 1.0 | 3.0 | 0.00 | 0.26 | 0.26 | 99 | 1015.1 |
| 20260502003514 | 58 | 340 | 1.0 | 2.0 | 0.00 | 0.26 | 0.26 | 99 | 1015.4 |
| 20260502003010 | 58 | 306 | 0.0 | 1.0 | 0.00 | 0.26 | 0.26 | 99 | 1015.7 |
| 20260502002507 | 58 | 326 | 0.0 | 1.0 | 0.00 | 0.26 | 0.26 | 99 | 1015.9 |
| 20260502002004 | 58 | 313 | 0.0 | 0.0 | 0.00 | 0.26 | 0.26 | 99 | 1015.6 |
| 20260502001501 | 58 | 330 | 1.0 | 2.0 | 0.07 | 0.26 | 0.26 | 99 | 1015.5 |
| 20260502000959 | 59 | 270 | 1.0 | 2.0 | 0.07 | 0.26 | 0.26 | 99 | 1015.5 |
| 20260502000457 | 59 | 300 | 1.0 | 1.0 | 0.00 | 0.24 | 0.24 | 99 | 1015.7 |
| 20260501235953 | 58 | 301 | 0.0 | 0.0 | 0.00 | 0.24 | 0.24 | 99 | 1015.3 |
| 20260501235449 | 58 | 302 | 0.0 | 3.0 | 0.00 | 0.24 | 0.24 | 99 | 1015.2 |
| 20260501234944 | 58 | 341 | 1.0 | 2.0 | 0.00 | 0.24 | 0.24 | 99 | 1014.7 |
| 20260501234441 | 58 | 357 | 3.0 | 3.0 | 0.00 | 0.24 | 0.24 | 99 | 1014.7 |
| 20260501233940 | 58 | 302 | 0.0 | 3.0 | 0.00 | 0.24 | 0.24 | 99 | 1014.6 |
| 20260501233437 | 58 | 43 | 1.0 | 2.0 | 0.00 | 0.24 | 0.24 | 99 | 1014.6 |
| 20260501232933 | 59 | 62 | 2.0 | 3.0 | 0.00 | 0.24 | 0.24 | 99 | 1014.3 |
| 20260501232430 | 59 | 15 | 1.0 | 2.0 | 0.00 | 0.24 | 0.24 | 99 | 1014.0 |
| 20260501231927 | 59 | 298 | 0.0 | 1.0 | 0.05 | 0.24 | 0.24 | 99 | 1014.4 |
| 20260501231426 | 59 | 281 | 0.0 | 0.0 | 0.05 | 0.24 | 0.24 | 99 | 1015.1 |
| 20260501230923 | 59 | 289 | 0.0 | 1.0 | 0.00 | 0.24 | 0.24 | 99 | 1015.0 |
| 20260501230422 | 59 | 346 | 0.0 | 2.0 | 0.00 | 0.24 | 0.24 | 99 | 1014.5 |
| 20260501225919 | 59 | 11 | 0.0 | 1.0 | 0.00 | 0.24 | 0.24 | 99 | 1014.5 |
| 20260501225417 | 59 | 319 | 0.0 | 1.0 | 0.00 | 0.24 | 0.24 | 99 | 1014.2 |
| 20260501224912 | 59 | 35 | 2.0 | 3.0 | 0.00 | 0.24 | 0.24 | 99 | 1012.9 |
| 20260501224410 | 59 | 326 | 0.0 | 3.0 | 0.00 | 0.24 | 0.24 | 99 | 1012.7 |
| 20260501223906 | 59 | 36 | 2.0 | 5.0 | 0.00 | 0.24 | 0.24 | 99 | 1012.8 |
| 20260501223403 | 59 | 353 | 0.0 | 3.0 | 0.00 | 0.24 | 0.24 | 99 | 1013.2 |
| 20260501222858 | 59 | 30 | 0.0 | 5.0 | 0.00 | 0.24 | 0.24 | 99 | 1013.1 |
| 20260501222356 | 60 | 58 | 3.0 | 5.0 | 0.07 | 0.24 | 0.24 | 99 | 1013.1 |
| 20260501221852 | 59 | 9 | 2.0 | 7.0 | 0.07 | 0.24 | 0.24 | 99 | 1013.4 |
| 20260501221350 | 59 | 10 | 1.0 | 3.0 | 0.00 | 0.22 | 0.22 | 99 | 1013.7 |
| 20260501220848 | 59 | 23 | 2.0 | 5.0 | 0.00 | 0.22 | 0.22 | 99 | 1014.1 |
| 20260501220345 | 60 | 329 | 2.0 | 3.0 | 0.00 | 0.22 | 0.22 | 99 | 1014.3 |
| 20260501215841 | 60 | 16 | 3.0 | 3.0 | 0.00 | 0.22 | 0.22 | 99 | 1014.6 |
| 20260501215337 | 60 | 311 | 0.0 | 0.0 | 0.00 | 0.22 | 0.22 | 99 | 1014.9 |
| 20260501214833 | 60 | 350 | 1.0 | 2.0 | 0.00 | 0.22 | 0.22 | 99 | |
| 20260501214328 | 60 | 299 | 0.0 | 0.0 | 0.00 | 0.22 | 0.22 | 99 | |
| 20260501213825 | 60 | 321 | 0.0 | 2.0 | 0.00 | 0.22 | 0.22 | 99 | |
| 20260501213321 | 60 | 286 | 0.0 | 3.0 | 0.00 | 0.22 | 0.22 | 99 | |
| 20260501212817 | 60 | 328 | 1.0 | 2.0 | 0.07 | 0.22 | 0.22 | 99 | |
| 20260501212314 | 60 | 330 | 0.0 | 5.0 | 0.07 | 0.22 | 0.22 | 99 | |
| 20260501211811 | 60 | 307 | 1.0 | 2.0 | 0.00 | 0.21 | 0.21 | 99 | |
| 20260501211308 | 60 | 61 | 1.0 | 3.0 | 0.00 | 0.21 | 0.21 | 99 | |
| 20260501210805 | 60 | 357 | 1.0 | 2.0 | 0.00 | 0.21 | 0.21 | 99 | |
| 20260501210302 | 60 | 346 | 1.0 | 3.0 | 0.00 | 0.21 | 0.21 | 99 | |
| 20260501205758 | 60 | 54 | 0.0 | 3.0 | 0.00 | 0.21 | 0.21 | 99 | |
| 20260501205255 | 60 | 37 | 2.0 | 5.0 | 0.00 | 0.21 | 0.21 | 99 | |
| 20260501204752 | 61 | 273 | 1.0 | 2.0 | 0.00 | 0.21 | 0.21 | 99 | |
| 20260501204249 | 61 | 47 | 0.0 | 3.0 | 0.00 | 0.21 | 0.21 | 99 | |
| 20260501203745 | 61 | 47 | 1.0 | 3.0 | 0.00 | 0.21 | 0.21 | 99 | |
| 20260501203243 | 61 | 359 | 1.0 | 2.0 | 0.00 | 0.21 | 0.21 | 99 | |
| 20260501202739 | 61 | 3 | 1.0 | 2.0 | 0.05 | 0.21 | 0.21 | 99 | |
| 20260501202236 | 61 | 7 | 1.0 | 2.0 | 0.00 | 0.20 | 0.20 | 99 | |
| 20260501201733 | 61 | 335 | 1.0 | 2.0 | 0.00 | 0.20 | 0.20 | 99 | |
| 20260501201230 | 61 | 318 | 0.0 | 1.0 | 0.00 | 0.20 | 0.20 | 99 | |
| 20260501200727 | 61 | 305 | 0.0 | 2.0 | 0.00 | 0.20 | 0.20 | 99 | |
| 20260501200224 | 62 | 288 | 0.0 | 2.0 | 0.00 | 0.20 | 0.20 | 99 | |
| 20260501195721 | 62 | 322 | 0.0 | 2.0 | 0.00 | 0.20 | 0.20 | 99 | |
| 20260501195217 | 61 | 328 | 1.0 | 2.0 | 0.00 | 0.20 | 0.20 | 99 | |
| 20260501194713 | 62 | 41 | 1.0 | 2.0 | 0.00 | 0.20 | 0.20 | 99 | |
| 20260501194209 | 62 | 296 | 0.0 | 1.0 | 0.00 | 0.20 | 0.20 | 99 | |
| 20260501193706 | 62 | 348 | 0.0 | 1.0 | 0.07 | 0.20 | 0.20 | 99 | |
| 20260501193204 | 62 | 38 | 1.0 | 2.0 | 0.07 | 0.20 | 0.20 | 99 | |
| 20260501192701 | 62 | 317 | 0.0 | 1.0 | 0.00 | 0.19 | 0.19 | 99 | |
| 20260501192158 | 62 | 287 | 0.0 | 1.0 | 0.00 | 0.19 | 0.19 | 99 | |
| 20260501191655 | 62 | 286 | 0.0 | 1.0 | 0.00 | 0.19 | 0.19 | 99 | |
| 20260501191153 | 62 | 320 | 0.0 | 0.0 | 0.00 | 0.19 | 0.19 | 99 | |
| 20260501190649 | 61 | 339 | 0.0 | 1.0 | 0.00 | 0.19 | 0.19 | 99 | |
| 20260501190144 | 61 | 333 | 0.0 | 1.0 | 0.00 | 0.19 | 0.19 | 99 | |
| 20260501185640 | 61 | 44 | 2.0 | 3.0 | 0.00 | 0.19 | 0.19 | 99 | |
| 20260501185136 | 61 | 341 | 0.0 | 1.0 | 0.00 | 0.19 | 0.19 | 99 | |
| 20260501184633 | 62 | 286 | 0.0 | 1.0 | 0.05 | 0.19 | 0.19 | 99 | |
| 20260501184127 | 61 | 340 | 0.0 | 1.0 | 0.05 | 0.19 | 0.19 | 99 | |
| 20260501183625 | 61 | 276 | 1.0 | 2.0 | 0.00 | 0.18 | 0.18 | 99 | |
| 20260501183121 | 61 | 125 | 1.0 | 5.0 | 0.00 | 0.18 | 0.18 | 99 | |
| 20260501182618 | 61 | 2 | 3.0 | 5.0 | 0.00 | 0.18 | 0.18 | 99 | |
| 20260501182114 | 62 | 0 | 0.0 | 1.0 | 0.00 | 0.18 | 0.18 | 99 | |
| 20260501181612 | 62 | 19 | 1.0 | 2.0 | 0.00 | 0.18 | 0.18 | 99 | |
| 20260501181108 | 62 | 245 | 3.0 | 5.0 | 0.00 | 0.18 | 0.18 | 99 | |
| 20260501180607 | 62 | 304 | 1.0 | 3.0 | 0.00 | 0.18 | 0.18 | 99 | |
| 20260501175559 | 62 | 21 | 0.0 | 1.0 | 0.00 | 0.18 | 0.18 | 99 | |
| 20260501175056 | 62 | 2 | 2.0 | 6.0 | 0.00 | 0.18 | 0.18 | 99 | |
| 20260501174553 | 62 | 332 | 0.0 | 3.0 | 0.07 | 0.18 | 0.18 | 99 | |
| 20260501174051 | 62 | 339 | 0.0 | 2.0 | 0.07 | 0.18 | 0.18 | 99 | |
| 20260501173547 | 62 | 300 | 0.0 | 0.0 | 0.00 | 0.17 | 0.17 | 99 | |
| 20260501173044 | 62 | 339 | 0.0 | 1.0 | 0.00 | 0.17 | 0.17 | 99 | |
| 20260501172539 | 62 | 317 | 0.0 | 0.0 | 0.00 | 0.17 | 0.17 | 99 | |
| 20260501172035 | 62 | 337 | 0.0 | 1.0 | 0.00 | 0.17 | 0.17 | 99 | 1014.9 |
| 20260501171532 | 62 | 314 | 0.0 | 2.0 | 0.00 | 0.17 | 0.17 | 99 | 1014.9 |
| 20260501171028 | 62 | 342 | 1.0 | 3.0 | 0.00 | 0.17 | 0.17 | 99 | 1014.9 |
| 20260501170525 | 61 | 354 | 1.0 | 6.0 | 0.00 | 0.17 | 0.17 | 99 | 1014.9 |
| 20260501170022 | 61 | 7 | 1.0 | 3.0 | 0.00 | 0.17 | 0.17 | 99 | 1014.9 |
| 20260501165520 | 61 | 357 | 2.0 | 3.0 | 0.00 | 0.17 | 0.17 | 99 | 1014.9 |
| 20260501165018 | 61 | 351 | 2.0 | 3.0 | 0.00 | 0.17 | 0.17 | 99 | 1014.9 |
| 20260501164515 | 61 | 308 | 0.0 | 1.0 | 0.00 | 0.17 | 0.17 | 99 | 1014.9 |
| 20260501164012 | 61 | 283 | 0.0 | 2.0 | 0.00 | 0.17 | 0.17 | 99 | 1014.9 |
| 20260501163508 | 61 | 297 | 1.0 | 1.0 | 0.07 | 0.17 | 0.17 | 99 | 1015.5 |
| 20260501163005 | 62 | 21 | 3.0 | 5.0 | 0.07 | 0.17 | 0.17 | 99 | 1015.1 |
| 20260501162501 | 62 | 264 | 1.0 | 1.0 | 0.00 | 0.16 | 0.16 | 99 | 1015.6 |